Tracking 28790 objects as of 19-Apr-2024
HD Live streaming from Space Station
objects crossing your sky now

TITAN 3C TRANSTAGE DEB

Track TITAN 3C TRANSTAGE DEB now!
10-day predictions


NORAD ID: 1668
Int'l Code: 1965-082AF
Perigee: 632.9 km
Apogee: 654.9 km
Inclination: 32.1 °
Period: 97.5 minutes
Semi major axis: 7014 km
RCS: 2.8531 m2 (large)
Launch date: October 15, 1965
Source: United States (US)
Launch site: AIR FORCE EASTERN TEST RANGE (AFETR)

Note: This is SATELLITE DEBRIS
Your satellite tracking list
Your tracking list is empty




NASA's NSSDC Master Catalog

Two Line Element Set (TLE):
1 01668U 65082AF  24109.57486441  .00004727  00000-0  64092-3 0  9991
2 01668  32.0692 306.0565 0015667 202.3684 157.6282 14.77641520101235
Source of the keplerian elements: AFSPC